Regional Weather Roundup
Issued by NWS

Home | Current Version | Previous Version | Graphics & Text | Print | Product List | Glossary On
Versions: 1 2 3 4 5 6 7 8 9 10 11 12 13 14 15 16 17 18 19 20 21 22 23 24 25 26 27 28 29 30 31 32 33 34 35 36 37 38 39 40 41 42 43 44 45 46 47 48 49 50
844
ASUS44 KMEG 282200
RWRTN
TENNESSEE HOURLY STATE WEATHER ROUNDUP
NATIONAL WEATHER SERVICE MEMPHIS TN
500 PM CDT THU JUL 28 2016

TNZ002-004-019-021-049-052-054-088>092-282300-
WEST TENNESSEE

CITY           SKY/WX    TMP DP  RH WIND       PRES   REMARKS
MEMPHIS INTL   PTSUNNY   87  76  69 SW9G20    29.91F HX  97
NWS MEMPHIS      N/A     86 N/A N/A MISG        N/A
JACKSON        PTSUNNY   88  77  69 SW9       29.90S HX 100
DYERSBURG      SUNNY    N/A N/A N/A MISG        N/A
UNION CITY     MOSUNNY   88  75  66 SW9       29.87S HX  97
PARIS          PTSUNNY   84  73  70 W3        29.90R HX  91
LEXINGTON      MOSUNNY   86  75  70 SW7       29.91R HX  95
$$

TNZ008-025-027-028-033-062-065-066-282300-
NORTH MIDDLE TENNESSEE

CITY           SKY/WX    TMP DP  RH WIND       PRES   REMARKS
NASHVILLE      CLOUDY    86  71  60 VRB6      29.91R HX  91
CLARKSVILLE    MOSUNNY   86  73  65 W7        29.88F HX  93
COOKEVILLE     CLOUDY    75  73  94 N3        29.93R
CROSSVILLE     CLOUDY    72  70  93 W5        29.97R
$$

TNZ061-075-076-078-094-096-097-282300-
SOUTH MIDDLE TENNESSEE

CITY           SKY/WX    TMP DP  RH WIND       PRES   REMARKS
TULLAHOMA      CLOUDY    73  73 100 SW7       29.98R
WINCHESTER     CLOUDY    72  72 100 SW5       29.98R
MCMINNVILLE    PTSUNNY   81  77  89 W5        29.94R
COLUMBIA       SUNNY    N/A N/A N/A SW9       29.92S
SHELBYVILLE    PTSUNNY   81  75  83 SW9       29.95R
$$

TNZ017-018-042-046-047-282300-
NORTHEAST TENNESSEE

CITY           SKY/WX    TMP DP  RH WIND       PRES   REMARKS
TRI CITIES     PTSUNNY   89  66  46 W16       29.90S HX  91
$$

TNZ012-013-036-069-073-074-282300-
CENTRAL EAST TENNESSEE

CITY           SKY/WX    TMP DP  RH WIND       PRES   REMARKS
KNOXVILLE      CLOUDY    79  73  82 W15       29.90S
OAK RIDGE      LGT RAIN  77  74  90 SW3       29.92F
$$

TNZ083-085-099-282300-
SOUTHEAST TENNESSEE

CITY           SKY/WX    TMP DP  RH WIND       PRES   REMARKS
CHATTANOOGA    CLOUDY    77  72  84 W12       29.94S
$$

SKY/WX REPORTED AS FAIR MEANS FEW OR NO CLOUDS BELOW
12 THOUSAND FEET.





USA.gov is the U.S. government's official web portal to all federal, state and local government web resources and services.